Weather History for De Quincy Industrial Air Park, LA

Change the Weather History Date:

Wednesday, April 30, 2014

  Actual Average (KLCH) Record (KLCH)
Temperature  
Mean Temperature 60 °F 72 °F  
Max Temperature 71 °F 81 °F 90 °F (1981)
Min Temperature 49 °F 62 °F 42 °F (1996)
Degree Days  
Heating Degree Days 5 0  
Month to date heating degree days 44  
Since 1 July heating degree days 1489  
Cooling Degree Days 0 7  
Month to date cooling degree days 136  
Year to date cooling degree days 208  
Growing Degree Days 10 (Base 50)    
Moisture  
Dew Point 45 °F    
Average Humidity 59    
Maximum Humidity 90    
Minimum Humidity 37    
Precipitation  
Precipitation 0.00 in 0.12 in 2.34 in (1957)
Month to date precipitation 3.33  
Year to date precipitation 15.68  
Snow  
Snow 0.00 in 0.00 in 0.00 in ()
Month to date snowfall 0.0  
Since 1 July snowfall 0.1  
Snow Depth -    
Sea Level Pressure  
Sea Level Pressure 30.02 in    
Wind  
Wind Speed 5 mph (NW)    
Max Wind Speed 16 mph    
Max Gust Speed 22 mph    
Visibility 10 miles    
Events      
T = Trace of Precipitation, MM = Missing Value Source: NWS Daily Summary

Daily Weather History Graph

Daily Weather History Graph

Search for Another Location

Airport:

Trip Planner

Search our weather history database for the weather conditions in past years. The results will help you decide how hot, cold, wet, or windy it might be!

Date:

Astronomy

Apr. 30, 2014 Rise Set
Actual Time 6:31 AM CDT 7:51 PM CDT
Civil Twilight 6:05 AM CDT 8:16 PM CDT
Nautical Twilight 5:35 AM CDT 8:47 PM CDT
Astronomical Twilight 5:04 AM CDT 9:18 PM CDT
Moon 7:35 AM CDT (4/30) 9:27 PM CDT (4/30)
Length of Visible Light 14h 10m
Length of Day
13h 20m
New Moon, 2% of the Moon is Illuminated
Apr 30
New Moon
May 6
First Quarter
May 14
Full
May 21
Last Quarter
May 28
New

Hourly Weather History & Observations

Time (CDT) Temp. Dew Point Humidity Pressure Visibility Wind Dir Wind Speed Gust Speed Precip Events Conditions
12:00 AM 56.3 °F 53.1 °F 89% 29.89 in 10.0 mi Calm Calm - N/A   Clear
12:15 AM 55.8 °F 52.9 °F 90% 29.89 in 10.0 mi Calm Calm - N/A   Clear
12:35 AM 55.8 °F 52.7 °F 89% 29.91 in 10.0 mi NNW 3.5 mph - N/A   Clear
12:55 AM 58.1 °F 49.6 °F 73% 29.91 in 10.0 mi North 4.6 mph - N/A   Clear
1:15 AM 57.0 °F 49.5 °F 76% 29.91 in 10.0 mi NNW 4.6 mph - N/A   Clear
1:35 AM 56.8 °F 48.7 °F 74% 29.92 in 10.0 mi NNW 5.8 mph - N/A   Clear
1:55 AM 56.7 °F 48.0 °F 73% 29.92 in 10.0 mi NNW 5.8 mph - N/A   Clear
2:15 AM 57.2 °F 45.9 °F 66% 29.93 in 10.0 mi NNW 8.1 mph - N/A   Clear
2:35 AM 57.6 °F 44.2 °F 61% 29.92 in 10.0 mi NNW 9.2 mph - N/A   Clear
2:55 AM 57.4 °F 43.9 °F 61% 29.93 in 10.0 mi NNW 8.1 mph - N/A   Clear
3:15 AM 57.4 °F 43.0 °F 59% 29.93 in 10.0 mi NNW 5.8 mph - N/A   Clear
3:35 AM 57.0 °F 42.4 °F 58% 29.94 in 10.0 mi NNW 6.9 mph - N/A   Clear
3:55 AM 56.3 °F 42.6 °F 60% 29.94 in 10.0 mi NNW 5.8 mph - N/A   Clear
4:15 AM 54.5 °F 43.3 °F 66% 29.95 in 10.0 mi NW 8.1 mph - N/A   Clear
4:35 AM 54.5 °F 43.2 °F 66% 29.96 in 10.0 mi NNW 5.8 mph - N/A   Clear
4:55 AM 54.5 °F 42.8 °F 65% 29.96 in 10.0 mi NNW 3.5 mph - N/A   Clear
5:15 AM 52.5 °F 44.1 °F 73% 29.96 in 10.0 mi Calm Calm - N/A   Clear
5:35 AM 51.6 °F 44.8 °F 77% 29.97 in 10.0 mi Calm Calm - N/A   Clear
5:55 AM 50.9 °F 44.2 °F 78% 29.97 in 10.0 mi Calm Calm - N/A   Clear
6:15 AM 50.5 °F 43.9 °F 78% 29.98 in 10.0 mi NNW 4.6 mph - N/A   Clear
6:35 AM 50.4 °F 43.2 °F 76% 29.99 in 10.0 mi Calm Calm - N/A   Clear
6:55 AM 49.3 °F 44.6 °F 84% 30.00 in 10.0 mi Calm Calm - N/A   Clear
7:15 AM 50.0 °F 46.0 °F 86% 30.00 in 10.0 mi Calm Calm - N/A   Clear
7:35 AM 52.5 °F 46.9 °F 81% 30.01 in 10.0 mi Calm Calm - N/A   Clear
7:55 AM 54.7 °F 44.2 °F 68% 30.02 in 10.0 mi Calm Calm - N/A   Clear
8:15 AM 56.1 °F 43.2 °F 62% 30.03 in 10.0 mi Calm Calm - N/A   Clear
8:35 AM 57.7 °F 43.5 °F 59% 30.04 in 10.0 mi NW 4.6 mph - N/A   Clear
8:55 AM 59.2 °F 42.6 °F 54% 30.05 in 10.0 mi NW 5.8 mph - N/A   Clear
9:15 AM 60.4 °F 42.6 °F 52% 30.06 in 10.0 mi NNW 3.5 mph - N/A   Clear
9:35 AM 61.2 °F 42.3 °F 50% 30.06 in 10.0 mi NW 4.6 mph - N/A   Clear
9:55 AM 62.2 °F 41.5 °F 47% 30.06 in 10.0 mi NW 5.8 mph - N/A   Clear
10:15 AM 63.3 °F 41.0 °F 44% 30.06 in 10.0 mi North 10.4 mph - N/A   Clear
10:35 AM 64.8 °F 41.4 °F 42% 30.05 in 10.0 mi North 8.1 mph 19.6 mph N/A   Clear
10:55 AM 65.1 °F 41.0 °F 41% 30.05 in 10.0 mi North 10.4 mph 17.3 mph N/A   Clear
11:15 AM 65.7 °F 40.1 °F 39% 30.04 in 10.0 mi NNW 13.8 mph 19.6 mph N/A   Clear
11:35 AM 66.2 °F 40.8 °F 40% 30.05 in 10.0 mi NNW 16.1 mph 21.9 mph N/A   Clear
11:55 AM 66.9 °F 41.2 °F 39% 30.06 in 10.0 mi NNW 16.1 mph 20.7 mph N/A   Clear
12:15 PM 66.9 °F 42.3 °F 41% 30.06 in 10.0 mi West 13.8 mph 18.4 mph N/A   Clear
12:35 PM 67.1 °F 42.8 °F 41% 30.06 in 10.0 mi NNW 8.1 mph 17.3 mph N/A   Clear
12:55 PM 67.8 °F 42.6 °F 40% 30.04 in 10.0 mi North 13.8 mph 20.7 mph N/A   Clear
1:15 PM 68.5 °F 43.7 °F 41% 30.04 in 10.0 mi NNW 16.1 mph 21.9 mph N/A   Clear
1:35 PM 68.9 °F 42.4 °F 38% 30.05 in 10.0 mi NW 4.6 mph 19.6 mph N/A   Clear
1:55 PM 69.4 °F 42.6 °F 38% 30.05 in 10.0 mi WNW 5.8 mph - N/A   Clear
2:15 PM 70.5 °F 43.2 °F 37% 30.06 in 10.0 mi NW 16.1 mph 21.9 mph N/A   Clear
2:35 PM 69.3 °F 42.3 °F 38% 30.05 in 10.0 mi WNW 9.2 mph 20.7 mph N/A   Clear
2:55 PM 70.2 °F 43.0 °F 37% 30.05 in 10.0 mi North 8.1 mph 18.4 mph N/A   Clear
3:15 PM 70.5 °F 43.3 °F 37% 30.04 in 10.0 mi West 8.1 mph - N/A   Clear
3:35 PM 70.7 °F 44.2 °F 39% 30.04 in 10.0 mi NW 9.2 mph - N/A   Clear
3:55 PM 70.3 °F 44.4 °F 39% 30.03 in 10.0 mi NNW 10.4 mph 17.3 mph N/A   Clear
4:15 PM 71.1 °F 44.1 °F 38% 30.02 in 10.0 mi WNW 12.7 mph 19.6 mph N/A   Clear
4:55 PM 69.8 °F 44.4 °F 40% 30.01 in 10.0 mi WNW 10.4 mph 16.1 mph N/A   Clear
5:15 PM 69.6 °F 44.6 °F 41% 30.02 in 10.0 mi NW 11.5 mph - N/A   Clear
5:35 PM 68.7 °F 44.8 °F 42% 30.02 in 10.0 mi WNW 6.9 mph - N/A   Clear
5:55 PM 68.2 °F 43.9 °F 41% 30.03 in 10.0 mi NW 9.2 mph - N/A   Clear
6:15 PM 68.0 °F 44.1 °F 42% 30.03 in 10.0 mi NW 9.2 mph - N/A   Clear
6:35 PM 67.5 °F 45.1 °F 45% 30.03 in 10.0 mi NW 6.9 mph - N/A   Clear
6:55 PM 66.4 °F 45.9 °F 48% 30.04 in 10.0 mi NW 6.9 mph - N/A   Clear
7:15 PM 65.3 °F 47.3 °F 52% 30.04 in 10.0 mi NW 3.5 mph - N/A   Clear
7:35 PM 63.7 °F 48.4 °F 57% 30.04 in 10.0 mi NNW 4.6 mph - N/A   Clear
8:15 PM 61.0 °F 47.7 °F 62% 30.05 in 10.0 mi North 5.8 mph - N/A   Clear
8:35 PM 59.4 °F 48.2 °F 67% 30.06 in 10.0 mi Calm Calm - N/A   Clear
8:55 PM 58.5 °F 48.4 °F 69% 30.07 in 10.0 mi NNW 3.5 mph - N/A   Clear
9:15 PM 56.1 °F 48.6 °F 76% 30.08 in 10.0 mi Calm Calm - N/A   Clear
9:35 PM 55.4 °F 49.8 °F 81% 30.09 in 10.0 mi Calm Calm - N/A   Clear
10:15 PM 53.8 °F 48.6 °F 82% 30.11 in 10.0 mi Calm Calm - N/A   Clear
10:35 PM 53.4 °F 46.9 °F 79% 30.11 in 10.0 mi Calm Calm - N/A   Clear
10:55 PM 54.9 °F 45.7 °F 71% 30.11 in 10.0 mi Calm Calm - N/A   Clear
11:15 PM 54.5 °F 45.5 °F 72% 30.12 in 10.0 mi Calm Calm - N/A   Clear
11:35 PM 52.0 °F 46.2 °F 81% 30.13 in 10.0 mi Calm Calm - N/A   Clear
11:55 PM 51.1 °F 47.7 °F 88% 30.12 in 10.0 mi Calm Calm - N/A   Clear